056  
NZUS99 KDVN 221010  
HRRRRR  
HOURLY WEATHER ROUNDUP  
NATIONAL WEATHER SERVICE QUAD CITIES IA IL  
500 AM CDT SUN APR 22 2018  
 
NOTE: "FAIR" INDICATES FEW OR NO CLOUDS BELOW 12,000 FEET WITH  
NO SIGNIFICANT WEATHER AND/OR OBSTRUCTIONS TO VISIBILITY.  
------------------------------------------------------------------  
 
CITY SKY/WX TMP DP RH WIND PRES REMARKS  
BURLINGTON CLOUDY 48 28 46 E10 30.24S WCI 43  
CEDAR RAPIDS FAIR 45 31 58 E13 30.28F WCI 39  
DAVENPORT FAIR 44 23 43 E12 30.30F WCI 38  
DUBUQUE FAIR 43 30 60 NE6 30.33R WCI 39  
IOWA CITY FAIR 46 30 53 NE9 30.29F WCI 41  
MOLINE FAIR 45 25 45 E10 30.28F WCI 40  
------------------------------------------------------------------  
THE STATIONS BELOW ARE NOT NWS STATIONS AND ARE NOT SUBJECT TO NWS  
QUALITY CONTROL. SOME STATIONS DO NOT REPORT WEATHER SUCH AS FOG.  
* - STATIONS THAT REPORT TMP AND DP IN WHOLE DEGREES CELSIUS, WHICH  
ARE THEN CONVERTED TO FAHRENHEIT.  
------------------------------------------------------------------  
 
CITY SKY/WX TMP DP RH WIND PRES REMARKS  
CLINTON FAIR 44 25 47 E12 30.31F WCI 38  
FAIRFIELD * CLOUDY 43 28 56 NE12 30.24S WCI 37  
FORT MADISON * PTCLDY 48 32 53 E10 30.24S WCI 44  
FREEPORT FAIR 40 29 64 NE5 30.35R WCI 37  
INDEPENDENCE * FAIR 44 33 64 E8 30.30F WCI 40  
KEOKUK * CLOUDY 48 32 53 E16 30.21S WCI 42  
MACOMB CLOUDY 45 31 58 E10 30.26S WCI 40  
MONTICELLO * FAIR 45 32 61 NE5 30.31F WCI 42  
MT PLEASANT PTCLDY 41 30 65 NE10 30.24S WCI 35  
MUSCATINE * MOCLDY 48 27 43 E7 30.28S WCI 45  
SAVANNA FAIR 44 25 48 NE8 30.32F WCI 39  
STERLING/R.F. FAIR 43 27 53 E12 30.31F WCI 37  
VINTON * FAIR 44 34 68 E8 30.28F WCI 39  
WASHINGTON * MOCLDY 43 30 61 NE7 30.27S WCI 39  
------------------------------------------------------------------  
 
 
CLICK HERE TO GO TO PREVIOUS BULLETINS.

The Nexlab IL Page
The Nexlab IA Page
The Nexlab MO Page Main Text Page